ZHONGXING-3A

Last updated on Sat Apr 11 2026 00:02:56 GMT+0000 (Coordinated Universal Time)

1 60179U 24122A 26100.47131360 -.00000312 00000+0 00000+0 0 9993 2 60179 0.0257 26.6902 0003425 72.2862 10.9794 1.00271256 6634
UTC large
Height (km)
Speed (km/s)
/
Latitude / Longitude
Inclination (degrees)
Orbital Period (minutes)
Azimuth
Elevation
Range (km)
Doppler Factor

Next 0 passes for location: London (51.5072 / 0.1276)

Sorry there are no passes over London.
ZHONGXING-3A